• In Austria
  • List of Countries
  • For 7 days
  • Water Temperature
  • Satellite Maps
  • Weather Map
  • News
  • Weather Widgets
  • user-avatar
    Login

    Hourly Weather Kenai Peninsula

    Today, 19 November, Sunday

    Time Temperature Precipitation Wind Pressure Humidity
    00:00 -7°C° 0.4 mm 3 mps 749 mmHg 75%
    01:00 -7°C° 0.4 mm 3 mps 748 mmHg 82%
    02:00 -8°C° 0.4 mm 3 mps 747 mmHg 89%
    03:00 -7°C° 0.8 mm 3 mps 745 mmHg 90%
    04:00 -8°C° 0.8 mm 4 mps 744 mmHg 92%
    05:00 -8°C° 0.8 mm 4 mps 743 mmHg 93%
    06:00 -8°C° 0.9 mm 4 mps 742 mmHg 93%
    07:00 -8°C° 0.9 mm 5 mps 742 mmHg 93%
    08:00 -8°C° 0.9 mm 5 mps 742 mmHg 93%
    09:00 -7°C° 0.5 mm 5 mps 742 mmHg 92%
    10:00 -7°C° 0.5 mm 5 mps 742 mmHg 91%
    11:00 -7°C° 0.5 mm 5 mps 742 mmHg 90%
    12:00 -7°C° 0.2 mm 5 mps 742 mmHg 89%
    13:00 -7°C° 0.2 mm 5 mps 742 mmHg 88%
    14:00 -7°C° 0.2 mm 5 mps 742 mmHg 88%
    15:00 -7°C° 0.1 mm 5 mps 742 mmHg 87%
    16:00 -7°C° 0.1 mm 5 mps 743 mmHg 87%
    17:00 -8°C° 0.1 mm 5 mps 744 mmHg 86%
    18:00 -8°C° 0 mm 5 mps 744 mmHg 85%
    19:00 -8°C° 0 mm 5 mps 745 mmHg 84%
    20:00 -8°C° 0 mm 5 mps 745 mmHg 83%
    21:00 -8°C° 0 mm 5 mps 746 mmHg 82%
    22:00 -8°C° 0 mm 5 mps 747 mmHg 81%
    23:00 -8°C° 0 mm 5 mps 747 mmHg 79%

    Tomorrow, 20 November, Monday

    Time Temperature Precipitation Wind Pressure Humidity
    00:00 -8°C° 0 mm 5 mps 748 mmHg 78%
    01:00 -8°C° 0 mm 5 mps 749 mmHg 77%
    02:00 -8°C° 0 mm 5 mps 749 mmHg 76%
    03:00 -8°C° 0 mm 5 mps 750 mmHg 76%
    04:00 -8°C° 0 mm 5 mps 751 mmHg 76%
    05:00 -8°C° 0 mm 5 mps 752 mmHg 76%
    06:00 -8°C° 0 mm 4 mps 752 mmHg 76%
    07:00 -8°C° 0 mm 4 mps 753 mmHg 76%
    08:00 -8°C° 0 mm 4 mps 754 mmHg 76%
    09:00 -8°C° 0 mm 4 mps 754 mmHg 74%
    10:00 -6°C° 0 mm 3 mps 755 mmHg 72%
    11:00 -6°C° 0 mm 3 mps 755 mmHg 71%
    12:00 -6°C° 0 mm 3 mps 755 mmHg 71%
    13:00 -6°C° 0 mm 3 mps 755 mmHg 71%
    14:00 -6°C° 0 mm 3 mps 756 mmHg 72%
    15:00 -7°C° 0 mm 3 mps 756 mmHg 72%
    16:00 -7°C° 0 mm 2 mps 756 mmHg 72%
    17:00 -7°C° 0 mm 2 mps 757 mmHg 72%
    18:00 -8°C° 0 mm 2 mps 757 mmHg 72%
    19:00 -8°C° 0 mm 2 mps 757 mmHg 72%
    20:00 -8°C° 0 mm 2 mps 757 mmHg 72%
    21:00 -8°C° 0 mm 2 mps 758 mmHg 73%
    22:00 -8°C° 0 mm 2 mps 758 mmHg 73%
    23:00 -8°C° 0 mm 2 mps 758 mmHg 74%

    Day after tomorrow, 21 November, Tuesday

    Time Temperature Precipitation Wind Pressure Humidity
    00:00 -8°C° 0 mm 2 mps 758 mmHg 74%
    01:00 -8°C° 0 mm 2 mps 758 mmHg 74%
    02:00 -8°C° 0 mm 2 mps 758 mmHg 74%
    03:00 -7°C° 0 mm 1 mps 758 mmHg 74%
    04:00 -7°C° 0 mm 1 mps 758 mmHg 75%
    05:00 -6°C° 0 mm 1 mps 758 mmHg 75%
    06:00 -6°C° 0 mm 1 mps 758 mmHg 75%
    07:00 -6°C° 0 mm 1 mps 758 mmHg 75%
    08:00 -6°C° 0 mm 1 mps 757 mmHg 75%
    09:00 -4°C° 0 mm 1 mps 757 mmHg 75%
    10:00 -3°C° 0 mm 1 mps 757 mmHg 75%
    11:00 -2°C° 0 mm 1 mps 757 mmHg 75%
    12:00 -2°C° 0 mm 1 mps 757 mmHg 76%
    13:00 -2°C° 0 mm 1 mps 756 mmHg 77%
    14:00 -1°C° 0 mm 1 mps 756 mmHg 78%
    15:00 -4°C° 0 mm 2 mps 756 mmHg 79%
    16:00 -5°C° 0 mm 2 mps 756 mmHg 81%
    17:00 -5°C° 0 mm 2 mps 756 mmHg 83%
    18:00 -5°C° 0 mm 2 mps 756 mmHg 83%
    19:00 -6°C° 0 mm 2 mps 756 mmHg 83%
    20:00 -7°C° 0 mm 3 mps 756 mmHg 83%
    21:00 -8°C° 0 mm 3 mps 756 mmHg 84%
    22:00 -8°C° 0 mm 3 mps 756 mmHg 84%
    23:00 -8°C° 0 mm 3 mps 756 mmHg 84%

    22 November, Wednesday

    Time Temperature Precipitation Wind Pressure Humidity
    00:00 -9°C° 0 mm 3 mps 756 mmHg 84%
    01:00 -9°C° 0 mm 3 mps 756 mmHg 84%
    02:00 -8°C° 0 mm 2 mps 756 mmHg 84%
    03:00 -8°C° 0 mm 2 mps 756 mmHg 84%
    04:00 -9°C° 0 mm 2 mps 756 mmHg 83%
    05:00 -9°C° 0 mm 2 mps 756 mmHg 83%
    06:00 -8°C° 0 mm 1 mps 756 mmHg 82%
    07:00 -8°C° 0 mm 1 mps 756 mmHg 82%
    08:00 -9°C° 0 mm 1 mps 756 mmHg 81%
    09:00 -8°C° 0 mm 1 mps 756 mmHg 80%
    10:00 -7°C° 0 mm 1 mps 756 mmHg 78%
    11:00 -7°C° 0 mm 2 mps 756 mmHg 77%
    12:00 -6°C° 0 mm 1 mps 755 mmHg 77%
    13:00 -6°C° 0 mm 1 mps 754 mmHg 78%
    14:00 -6°C° 0 mm 1 mps 753 mmHg 79%
    15:00 -7°C° 0 mm 1 mps 752 mmHg 79%
    16:00 -8°C° 0 mm 2 mps 751 mmHg 79%
    17:00 -8°C° 0 mm 2 mps 750 mmHg 78%
    18:00 -8°C° 0 mm 2 mps 749 mmHg 78%
    19:00 -7°C° 0 mm 2 mps 748 mmHg 77%
    20:00 -8°C° 0 mm 3 mps 747 mmHg 76%
    21:00 -6°C° 0 mm 2 mps 747 mmHg 77%
    22:00 -6°C° 0 mm 2 mps 746 mmHg 79%
    23:00 -6°C° 0 mm 2 mps 745 mmHg 80%

    23 November, Thursday

    Time Temperature Precipitation Wind Pressure Humidity
    00:00 -6°C° 0.1 mm 2 mps 744 mmHg 82%
    01:00 -7°C° 0.1 mm 3 mps 744 mmHg 84%
    02:00 -7°C° 0.1 mm 3 mps 743 mmHg 86%
    03:00 -7°C° 0.1 mm 3 mps 742 mmHg 87%
    04:00 -7°C° 0.1 mm 3 mps 742 mmHg 87%
    05:00 -7°C° 0.1 mm 3 mps 741 mmHg 88%
    06:00 -7°C° 0.1 mm 3 mps 741 mmHg 88%
    07:00 -8°C° 0.1 mm 4 mps 740 mmHg 88%
    08:00 -8°C° 0.1 mm 4 mps 740 mmHg 88%
    09:00 -7°C° 0.1 mm 4 mps 740 mmHg 87%
    10:00 -7°C° 0.1 mm 5 mps 740 mmHg 86%
    11:00 -7°C° 0.1 mm 5 mps 740 mmHg 85%
    12:00 -6°C° 0.1 mm 5 mps 740 mmHg 84%
    13:00 -6°C° 0.1 mm 5 mps 740 mmHg 84%
    14:00 -6°C° 0.1 mm 5 mps 740 mmHg 84%
    15:00 -7°C° 0 mm 5 mps 740 mmHg 83%
    16:00 -7°C° 0 mm 5 mps 740 mmHg 83%
    17:00 -7°C° 0 mm 4 mps 741 mmHg 83%
    18:00 -7°C° 0 mm 4 mps 741 mmHg 83%
    19:00 -7°C° 0 mm 4 mps 742 mmHg 82%
    20:00 -7°C° 0 mm 4 mps 743 mmHg 81%
    21:00 -7°C° 0 mm 4 mps 743 mmHg 81%
    22:00 -8°C° 0 mm 4 mps 744 mmHg 80%
    23:00 -8°C° 0 mm 4 mps 745 mmHg 80%

    24 November, Friday

    Time Temperature Precipitation Wind Pressure Humidity
    00:00 -8°C° 0 mm 4 mps 746 mmHg 79%
    01:00 -8°C° 0 mm 4 mps 746 mmHg 78%
    02:00 -8°C° 0 mm 4 mps 747 mmHg 78%
    03:00 -8°C° 0 mm 4 mps 748 mmHg 78%
    04:00 -7°C° 0 mm 3 mps 748 mmHg 77%
    05:00 -8°C° 0 mm 3 mps 749 mmHg 77%
    06:00 -8°C° 0 mm 3 mps 750 mmHg 76%
    07:00 -8°C° 0 mm 3 mps 750 mmHg 75%
    08:00 -8°C° 0 mm 3 mps 751 mmHg 74%
    09:00 -8°C° 0 mm 3 mps 752 mmHg 72%
    10:00 -7°C° 0 mm 3 mps 752 mmHg 70%
    11:00 -7°C° 0 mm 3 mps 753 mmHg 68%
    12:00 -7°C° 0 mm 3 mps 753 mmHg 67%
    13:00 -7°C° 0 mm 3 mps 754 mmHg 66%
    14:00 -7°C° 0 mm 3 mps 755 mmHg 66%
    15:00 -8°C° 0 mm 3 mps 755 mmHg 66%
    16:00 -8°C° 0 mm 3 mps 756 mmHg 67%
    17:00 -9°C° 0 mm 3 mps 757 mmHg 67%
    18:00 -9°C° 0 mm 3 mps 758 mmHg 67%
    19:00 -9°C° 0 mm 3 mps 758 mmHg 66%
    20:00 -10°C° 0 mm 3 mps 759 mmHg 65%
    21:00 -9°C° 0 mm 2 mps 760 mmHg 65%
    22:00 -9°C° 0 mm 2 mps 760 mmHg 65%
    23:00 -9°C° 0 mm 2 mps 761 mmHg 65%
    Show more